This is the latest recevied weather packets stored in our database for station/object N0HOT. If no packets are shown the sender has not sent any weather packets the latest 10 day(s).
| Time | Temp. | Humidity | Pressure | Rain* | Wind** | Luminosity | Snow |
|---|---|---|---|---|---|---|---|
| 1788448057 | 21.11° C | 88% | 1012.2 hPa | 0 mm | - | 21 W/m² | - |
| 1788447756 | 21.11° C | 88% | 1011.8 hPa | 1.78 mm | - | 40 W/m² | - |
| 1788447451 | 21.11° C | 88% | 1011.1 hPa | 3.05 mm | - | 42 W/m² | - |
| 1788447147 | 21.11° C | 88% | 1011.1 hPa | 1.27 mm | - | 16 W/m² | - |
| 1788446845 | 21.11° C | 88% | 1012.2 hPa | 0 mm | - | 19 W/m² | - |
| 1788446541 | 21.11° C | 88% | 1011.8 hPa | 0 mm | - | 28 W/m² | - |
| 1788446237 | 20.56° C | 88% | 1011.1 hPa | 0 mm | - | 52 W/m² | - |
| 1788445933 | 20.56° C | 88% | 1011.1 hPa | 0 mm | - | 47 W/m² | - |
| 1788445628 | 20.56° C | 88% | 1011.8 hPa | 0 mm | - | 39 W/m² | - |
| 1788445324 | 20.56° C | 88% | 1011.8 hPa | 0 mm | - | 27 W/m² | - |
| 1788445019 | 20.56° C | 88% | 1011.8 hPa | 0 mm | - | 35 W/m² | - |
| 1788444714 | 20.56° C | 88% | 1011.8 hPa | 0 mm | - | 27 W/m² | - |
| 1788444410 | 20.56° C | 88% | 1012.2 hPa | 0 mm | - | 24 W/m² | - |
| 1788444106 | 20.56° C | 88% | 1012.2 hPa | 0 mm | - | 32 W/m² | - |
| 1788443802 | 20.56° C | 88% | 1012.2 hPa | 1.78 mm | - | 36 W/m² | - |
| 1788443496 | 20.56° C | 88% | 1012.5 hPa | 1.78 mm | - | 18 W/m² | - |
| 1788443195 | 20.56° C | 88% | 1012.2 hPa | 0 mm | - | 12 W/m² | - |
| 1788442891 | 20.56° C | 88% | 1012.8 hPa | 0 mm | - | 5 W/m² | - |
| 1788442589 | 20.56° C | 88% | 1012.8 hPa | 0 mm | - | 5 W/m² | - |
| 1788442285 | 20.56° C | 88% | 1012.2 hPa | 1.27 mm | - | 6 W/m² | - |
| 1788441985 | 20.56° C | 88% | 1012.8 hPa | 0 mm | - | 6 W/m² | - |
| 1788441679 | 20.56° C | 88% | 1013.2 hPa | 1.78 mm | - | 5 W/m² | - |
| 1788441374 | 20.56° C | 87% | 1012.8 hPa | 1.27 mm | - | 5 W/m² | - |
| 1788441073 | 20.56° C | 87% | 1013.2 hPa | 1.27 mm | - | 5 W/m² | - |
| 1788440768 | 20.56° C | 87% | 1013.2 hPa | 1.78 mm | - | 5 W/m² | - |
* Rain latest hour (hover to see other rain measurements)
** Current wind speed in m/s (hover to see current wind gust speed)